Location: Presina
(45.2833°N, 11.3000°E)
Time: 23:47:28
(UTC+00:00)

Daily predictions for brighter satellites

Satellite Brightness Start Highest point End
(mag) Time Altitude Azimuth Time Altitude Azimuth Time Altitude Azimuth
CENTAUR R/B 4.3 17:36:39 10° NNW 17:43:04 28° NNE 17:50:07 10° E
CZ-2C R/B 4.1 17:40:26 10° NE 17:43:59 17° E 17:47:31 10° SE
ATLAS 5 CENTAUR R/B 2.1 17:41:44 10° NW 17:44:26 68° NE 17:52:01 10° SE
SL-16 R/B 3.9 17:39:32 10° NW 17:44:45 38° WSW 17:49:55 10° S
Cosmos 1707 4.2 17:43:29 10° NNE 17:46:15 19° ENE 17:49:00 10° ESE
Cosmos 1743 3.1 17:42:37 10° SSW 17:46:26 69° W 17:50:16 10° N
Iridium 4 Rocket 3.5 17:42:26 10° SSE 17:47:13 62° E 17:52:30 10° N
ATLAS CENTAUR R/B 3.9 17:50:12 10° W 17:52:47 17° NW 17:55:18 10° N
Cosmos 2263 Rocket 2.2 17:49:37 10° SSW 17:55:06 65° ESE 18:00:39 10° NNE
Meteor 2-9 Rocket 4.3 17:52:21 10° S 17:58:07 64° E 18:03:52 10° NNE
DELTA 2 R/B (1) 4.4 17:53:09 10° W 17:58:21 42° S 18:03:32 10° ESE
Cosmos 1844 Rocket 4.0 17:59:37 10° SE 18:02:56 16° E 18:06:14 10° ENE
CZ-2C R/B 3.1 17:58:00 10° SSE 18:03:11 78° ENE 18:08:43 10° N
Tsikada Rocket 4.4 17:57:17 10° NNW 18:03:23 68° W 18:09:30 10° S
SJ 16-02 2.4 17:59:34 10° SW 18:03:49 49° WNW 18:08:05 10° N
Cosmos 990 Rocket 4.0 17:58:56 10° SSW 18:04:05 88° WNW 18:09:16 10° NNE
Cosmos 2227 4.2 17:58:56 10° SSW 18:04:40 83° ESE 18:10:26 10° NNE
Cosmos 1464 Rocket 4.5 17:59:42 10° SSE 18:05:11 36° E 18:10:44 10° NNE
ISS -2.5 18:03:04 10° SSW 18:05:52 25° SE 18:08:14 13° E
Abrixas rocket 2.2 18:05:49 10° W 18:08:38 60° NNW 18:11:15 11° ENE
Okean 2 Rocket 4.0 18:05:03 10° SSE 18:08:53 28° E 18:12:45 10° NNE
SJ-11-01 4.2 18:04:52 10° SSE 18:09:33 74° ENE 18:14:16 10° N
Cosmos 1943 3.2 18:05:14 10° NNW 18:10:55 84° ENE 18:16:35 10° SSE
Okean-O 3.9 18:07:37 10° S 18:11:51 45° W 18:16:07 10° NNW
Lacrosse 5 rocket 3.2 18:09:29 10° W 18:13:15 29° NNW 18:17:10 10° NE
Ariane Rocket 3.6 18:10:27 10° SE 18:15:03 37° ENE 18:19:42 10° N
Cosmos 1437 2.6 18:15:49 10° NNW 18:18:50 78° W 18:21:48 10° S
NOSS 2-2 (C) 3.3 18:16:38 10° SSW 18:19:58 44° ESE 18:23:35 10° NE
NOSS 3-2 (A) 4.5 18:13:02 10° NNW 18:20:04 45° NE 18:26:32 16° ESE
Meteor 1-21 4.2 18:16:09 10° NNW 18:21:47 87° W 18:27:22 10° S
Cosmos 1300 Rocket 4.1 18:18:07 10° SSE 18:22:08 37° E 18:26:14 10° NNE
CSL-04 Debris 4.4 18:17:35 10° S 18:22:57 74° WSW 18:28:22 10° NNW
USA 116 4.0 18:19:50 10° N 18:23:12 63° WNW 18:26:56 10° SSW
YAOGAN 1 3.9 18:23:22 10° S 18:27:28 42° W 18:31:36 10° NNW
HJ-1C 3.9 18:26:39 10° S 18:29:53 60° W 18:33:10 10° NNW
Cosmos 1603 4.2 18:24:42 10° NNW 18:30:18 60° WSW 18:35:48 10° S
Cosmos 1898 Rocket 4.2 18:26:10 10° SW 18:31:14 58° WNW 18:36:23 10° NNE
CSL-04 Rocket 4.1 18:27:20 10° S 18:32:41 64° WSW 18:38:10 10° NNW
Cosmos 1891 Rocket 4.4 18:26:45 10° S 18:32:48 63° E 18:38:47 10° NNE
Cosmos 1867 3.6 18:28:58 10° NNW 18:34:27 73° NE 18:38:36 18° SE
Cosmos 1536 Rocket 4.1 18:34:47 10° N 18:38:59 39° ENE 18:41:16 23° SE
USA 234 3.6 18:36:15 10° ENE 18:42:23 42° SE 18:48:31 10° SSW
Cosmos 1626 4.5 18:43:08 10° NE 18:43:18 10° NE 18:43:18 10° NE
DMSP B5D2-2 4.3 18:42:10 10° NNE 18:47:18 48° E 18:52:23 10° S
CZ-4 R/B 4.2 18:46:40 10° SW 18:49:49 20° W 18:52:59 10° NW
Cosmos 2151 Rocket 3.6 18:45:39 10° S 18:49:58 54° E 18:54:22 10° NNE
Cosmos 372 Rocket 3.9 18:45:04 10° SSW 18:50:18 76° ESE 18:55:33 10° NNE
USA 186 1.6 18:48:48 26° SSE 18:50:26 89° ENE 18:53:40 10° NNW
Cosmos 2150 Rocket 4.2 18:47:35 10° S 18:52:44 51° ESE 18:58:00 10° NNE
Cosmos 1025 Rocket 2.9 18:48:39 10° N 18:53:02 74° E 18:56:09 19° SSE
NOSS 3-2 (C) 4.5 18:47:07 10° NNW 18:54:12 47° NE 18:58:44 25° ESE
Nadezhda 4 Rocket 3.9 18:53:44 10° N 18:59:51 68° E 19:04:42 17° SSE
OBJECT-B 1.5 19:01:22 39° NE 19:01:22 39° NE 19:03:59 10° N
Cosmos 2034 Rocket 3.9 18:55:37 10° S 19:01:57 71° E 19:08:17 10° NNE
Cosmos 2082 Rocket 4.4 19:01:50 10° NNE 19:02:59 11° NE 19:04:10 10° NE
Cosmos 1125 Rocket 3.8 18:58:46 10° S 19:03:44 42° ESE 19:08:44 10° NE
MOS 1 Rocket 4.2 18:59:55 10° N 19:04:14 46° WNW 19:08:21 10° SW
FREGAT/IRIS 2.8 19:05:32 54° NNW 19:05:32 54° NNW 19:07:40 10° NNW
Exosat Rocket 3.9 18:59:42 10° S 19:05:08 42° ESE 19:09:51 10° NE
CZ-2C R/B 3.1 19:03:17 10° SW 19:04:39 14° SSW 19:04:39 14° SSW
Cosmos 1674 2.9 19:06:02 10° N 19:09:42 51° ENE 19:09:42 51° ENE
Meteor 1-24 Rocket 4.3 19:08:46 10° N 19:13:45 34° ENE 19:14:11 34° E
In-Cosmos 22 4.3 19:11:38 10° NNW 19:16:54 69° W 19:21:24 14° S
Cosmos 468 4.4 19:12:56 10° NNW 19:18:18 84° ENE 19:20:21 39° SSE
Resurs 01 Rocket 2.0 19:19:16 44° ENE 19:19:16 44° ENE 19:23:26 10° N
H-2A R/B 3.9 19:15:37 10° SSW 19:19:50 28° W 19:24:11 10° NW
ARGOS 4.4 19:15:56 10° SSW 19:20:53 39° W 19:25:55 10° NNW
ATLAS 2AS CENTAUR R/B 4.0 19:14:56 10° S 19:24:48 25° ENE 19:28:35 10° NE
Cosmos 1707 4.4 19:18:45 10° NNW 19:22:12 33° W 19:25:39 10° SSW
SJ-6B 3.3 19:21:47 32° SSW 19:23:12 52° W 19:26:53 10° NNW
CZ-2C R/B 2.9 19:19:17 10° N 19:24:47 74° WNW 19:30:22 10° SSW
NOSS 2-2 (D) 4.4 19:22:29 10° WSW 19:25:49 40° NW 19:29:35 10° NNE
KORONAS-FOTON 3.8 19:23:31 10° N 19:27:14 76° NNE 19:27:14 76° NNE
Cosmos 1048 Rocket 4.1 19:27:09 10° NNW 19:32:29 79° WSW 19:34:10 45° S
Cosmos 1844 3.5 19:28:27 10° SSW 19:34:07 71° ESE 19:39:46 10° NNE
CENTAUR R/B 3.2 19:27:14 10° NW 19:35:15 69° NE 19:38:33 42° ESE
Cosmos 1634 Rocket 3.9 19:34:23 49° SE 19:35:34 58° E 19:41:38 10° NNE
ARIANE 5 R/B 3.7 19:37:43 32° NNE 19:37:43 32° NNE 19:40:32 10° N
Cosmos 2263 Rocket 4.5 19:35:07 10° W 19:39:32 23° NW 19:43:59 10° N
Cosmos 2285 Rocket 3.8 19:34:04 10° S 19:40:20 74° ESE 19:46:41 10° NNE
ATLAS 3B R/B 3.7 19:34:55 10° NNW 19:41:01 33° NE 19:42:49 29° ENE
MetOp-B 4.3 19:41:10 53° ENE 19:41:10 53° ENE 19:46:19 10° N
Cosmos 1269 Rocket 4.4 19:36:34 10° NNW 19:41:30 48° NE 19:41:30 48° NE
ISS -2.1 19:39:10 10° WSW 19:41:14 33° W 19:41:14 33° W
USA 238 DEB 3.8 19:35:48 10° NW 19:43:03 83° SW 19:45:38 45° SSE
USA 238 3.8 19:35:54 10° NW 19:43:10 84° SW 19:45:43 46° SSE
Cosmos 1844 Rocket 2.7 19:40:32 10° SSW 19:46:06 77° WNW 19:51:43 10° NNE
Spot 2 Rocket 4.3 19:48:07 38° NE 19:48:07 38° NE 19:51:54 10° N
Okean 1 Rocket 3.3 19:51:22 71° NW 19:51:22 71° NW 19:55:33 10° N
Cosmos 1627 Rocket 4.4 19:45:44 10° N 19:52:09 84° E 19:53:33 58° SSE
Lacrosse 5 rocket 3.8 19:50:33 10° NW 19:53:38 18° N 19:55:13 15° NNE
Resurs 1-3 4.3 19:57:58 47° WSW 19:58:14 47° W 20:02:30 10° NNW
Cosmos 1092 Rocket 4.1 19:52:07 10° NNW 19:58:15 71° W 20:00:15 44° SSW
SPOT 3 Rocket 4.1 20:03:38 47° SW 20:04:31 53° W 20:09:34 10° NNW
Cosmos 494 Rocket 4.2 20:00:15 10° NNW 20:05:27 63° WSW 20:05:36 63° WSW
Cosmos 2026 Rocket 4.0 19:59:26 10° N 20:05:50 82° W 20:06:56 63° S
CZ-2C R/B 4.2 20:01:37 10° N 20:05:30 55° NW 20:05:30 55° NW
Cosmos 1833 Rocket 3.6 20:03:23 10° NNW 20:07:47 37° NNE 20:07:47 37° NNE
NOSS 3-2 (A) 4.4 20:03:52 10° NW 20:11:19 58° WSW 20:13:57 42° S
Terra 3.9 20:19:13 18° NNE 20:19:13 18° NNE 20:20:49 10° N
Cosmos 2279 Rocket 4.1 20:20:51 64° NNE 20:20:51 64° NNE 20:26:08 10° N
Cosmos 2142 Rocket 4.4 20:21:19 83° N 20:21:19 83° N 20:27:21 10° N
USA 234 3.4 20:19:23 11° NE 20:25:37 68° NNW 20:32:06 10° WSW
SPOT 5 4.4 20:40:09 32° N 20:40:09 32° N 20:43:04 10° N
NOSS 3-2 (C) 4.4 20:38:01 10° NW 20:45:27 55° WSW 20:46:11 54° SW
Cosmos 2082 Rocket 3.5 20:43:12 10° NNW 20:46:33 32° N 20:46:33 32° N
Resurs 01 Rocket 4.1 20:56:51 18° WNW 20:56:51 18° WNW 20:59:08 10° NW
COSMOS 2406 4.2 20:50:32 10° NNW 20:54:20 43° NW 20:54:20 43° NW
Lacrosse 4 Rocket 4.4 21:01:51 10° NNW 21:02:11 12° NNW 21:02:11 12° NNW
ATLAS 2AS CENTAUR R/B 3.2 21:04:22 10° SW 21:12:18 70° NW 21:20:11 10° NE
Cosmos 2278 Rocket 4.4 21:22:33 17° NNE 21:22:33 17° NNE 21:23:46 10° NNE
CENTAUR R/B 4.1 21:18:24 10° NW 21:25:44 37° WSW 21:25:44 37° WSW
ATLAS 3B R/B 3.5 21:25:25 10° NW 21:30:03 46° NW 21:30:03 46° NW
USA 234 4.5 22:02:13 10° NE 22:08:01 36° NNW 22:13:50 10° WNW
